Broomfield, CO

5:13 PM MST on February 27, 2017 (GMT -0700)
Jeffco

Weather History for KBJC - August, 2013

Change the Weather History Date:

Sunday, August 11, 2013

  Actual Average Record
Temperature  
Mean Temperature 70 °F -  
Max Temperature 80 °F 83 °F 95 °F (2002)
Min Temperature 60 °F 59 °F 51 °F (2008)
Cooling Degree Days 5    
Growing Degree Days 20 (Base 50)    
Moisture  
Dew Point 44 °F    
Average Humidity 45    
Maximum Humidity 63    
Minimum Humidity 21    
Precipitation  
Precipitation 0.00 in - - ()
Sea Level Pressure  
Sea Level Pressure 30.24 in    
Wind  
Wind Speed 7 mph (NW)    
Max Wind Speed 15 mph    
Max Gust Speed 18 mph    
Visibility 10 miles    
Events Thunderstorm    
Averages and records for this station are not official NWS values.
T = Trace of Precipitation, MM = Missing Value Source: NWS Daily Summary

Daily Weather History Graph

Daily Weather History Graph

Search for Another Location

Airport or City:

Trip Planner

Search our weather history database for the weather conditions in past years. The results will help you decide how hot, cold, wet, or windy it might be!

Date:

Astronomy

Aug. 11, 2013 Rise Set
Actual Time 6:08 AM MDT 8:01 PM MDT
Civil Twilight 5:39 AM MDT 8:31 PM MDT
Nautical Twilight 5:03 AM MDT 9:06 PM MDT
Astronomical Twilight 4:25 AM MDT 9:44 PM MDT
Moon 10:59 AM MDT (8/11) 10:19 PM MDT (8/11)
Length of Visible Light 14h 51m
Length of Day
13h 53m
Waxing Crescent, 22% of the Moon is Illuminated
Aug 11
Waxing Crescent
Aug 14
First Quarter
Aug 20
Full
Aug 28
Last Quarter
Sep 5
New

Hourly Weather History & Observations

Time (MDT) Temp. Dew Point Humidity Pressure Visibility Wind Dir Wind Speed Gust Speed Precip Events Conditions
12:15 AM 62.6 °F 44.6 °F 52% 30.22 in 10.0 mi Calm Calm - N/A   Clear
12:35 AM 62.6 °F 44.6 °F 52% 30.21 in 10.0 mi West 5.8 mph - N/A   Clear
12:55 AM 62.6 °F 44.6 °F 52% 30.22 in 10.0 mi ESE 8.1 mph - N/A   Clear
1:15 AM 62.6 °F 44.6 °F 52% 30.23 in 10.0 mi SE 4.6 mph - N/A   Clear
1:35 AM 62.6 °F 46.4 °F 55% 30.23 in 10.0 mi South 4.6 mph - N/A   Clear
1:55 AM 62.6 °F 46.4 °F 55% 30.23 in 10.0 mi SSW 3.5 mph - N/A   Clear
2:15 AM 60.8 °F 46.4 °F 59% 30.23 in 10.0 mi WSW 4.6 mph - N/A   Clear
2:35 AM 60.8 °F 44.6 °F 55% 30.22 in 10.0 mi WSW 4.6 mph - N/A   Clear
2:55 AM 60.8 °F 44.6 °F 55% 30.22 in 10.0 mi WNW 9.2 mph - N/A   Clear
3:15 AM 64.4 °F 42.8 °F 45% 30.22 in 10.0 mi WNW 13.8 mph - N/A   Clear
3:35 AM 64.4 °F 42.8 °F 45% 30.22 in 10.0 mi NW 13.8 mph - N/A   Clear
3:55 AM 64.4 °F 44.6 °F 49% 30.22 in 10.0 mi NW 13.8 mph 18.4 mph N/A   Clear
4:15 AM 64.4 °F 44.6 °F 49% 30.22 in 10.0 mi NW 15.0 mph - N/A   Clear
4:35 AM 64.4 °F 44.6 °F 49% 30.24 in 10.0 mi North 13.8 mph - N/A   Scattered Clouds
4:55 AM 60.8 °F 48.2 °F 63% 30.24 in 10.0 mi NNW 15.0 mph - N/A   Scattered Clouds
5:15 AM 60.8 °F 46.4 °F 59% 30.24 in 10.0 mi NNW 12.7 mph - N/A   Scattered Clouds
5:35 AM 60.8 °F 46.4 °F 59% 30.25 in 10.0 mi NNW 10.4 mph - N/A   Scattered Clouds
5:47 AM 62.6 °F 48.2 °F 59% 30.24 in 30.0 mi NW 12.7 mph - N/A   Mostly Cloudy
5:55 AM 60.8 °F 46.4 °F 59% 30.25 in 10.0 mi NNW 10.4 mph - N/A   Clear
6:47 AM 62.6 °F 46.4 °F 55% 30.26 in 30.0 mi WNW 9.2 mph - N/A   Mostly Cloudy
7:47 AM 64.4 °F 48.2 °F 56% 30.27 in 30.0 mi Calm Calm - N/A   Mostly Cloudy
8:47 AM 68.0 °F 44.6 °F 43% 30.28 in 30.0 mi Calm Calm - N/A   Mostly Cloudy
9:47 AM 71.6 °F 46.4 °F 41% 30.28 in 30.0 mi Variable 3.5 mph - N/A   Mostly Cloudy
10:47 AM 75.2 °F 41.0 °F 29% 30.28 in 30.0 mi Variable 3.5 mph - N/A   Mostly Cloudy
11:55 AM 78.8 °F 39.2 °F 24% 30.27 in 30.0 mi NE 8.1 mph - N/A   Mostly Cloudy
12:49 PM 80.6 °F 37.4 °F 21% 30.26 in 30.0 mi East 11.5 mph - N/A   Mostly Cloudy
1:45 PM 80.6 °F 37.4 °F 21% 30.25 in 30.0 mi North 9.2 mph - N/A Thunderstorm Mostly Cloudy
2:48 PM 77.0 °F 39.2 °F 26% 30.26 in 30.0 mi NNW 5.8 mph - N/A Thunderstorm Mostly Cloudy
3:50 PM 80.6 °F 41.0 °F 24% 30.24 in 30.0 mi NNW 5.8 mph - N/A   Mostly Cloudy
4:47 PM 80.6 °F 41.0 °F 24% 30.22 in 40.0 mi NW 8.1 mph - N/A   Mostly Cloudy
5:47 PM 77.0 °F 41.0 °F 28% 30.22 in 50.0 mi Variable 3.5 mph - N/A   Mostly Cloudy
6:04 PM 75.2 °F 44.6 °F 34% 30.21 in 50.0 mi SSW 3.5 mph - N/A   Mostly Cloudy
7:47 PM 73.4 °F 44.6 °F 36% 30.22 in 30.0 mi NW 4.6 mph - N/A   Mostly Cloudy
8:47 PM 71.6 °F 46.4 °F 41% 30.23 in 25.0 mi North 6.9 mph - N/A   Mostly Cloudy
9:50 PM 71.6 °F 44.6 °F 38% 30.25 in 25.0 mi North 4.6 mph - N/A   Mostly Cloudy